AAL1813 MBPV-KMIA

Flight info

Callsign AAL1813
Flight time 1h 30m
Altitude 34000
Route MICAS4 MICAS DCT FODED Y308 MADIZ VIICE2
Aircraft B738/M-SDE2E3FGHIRWXY/LB1

Departure

Time 2026-04-25 19:12
Airport Providenciales International Airport (MBPV)

Arrival

Time 2026-04-25 20:43
Airport Miami International Airport (KMIA)
Time Latitude Longitude Altitude Speed Heading
2026-04-25 18:35 21.77654 -72.27414 44 ft 0 kts 33°
2026-04-25 19:05 21.77630 -72.27431 35 ft 4 kts 29°
2026-04-25 19:05 21.77580 -72.27452 -6 ft 4 kts 11°
2026-04-25 19:05 21.77554 -72.27456 40 ft 4 kts 357°
2026-04-25 19:06 21.77530 -72.27449 41 ft 4 kts 315°
2026-04-25 19:06 21.77523 -72.27442 41 ft 1 kts 215°
2026-04-25 19:09 21.77522 -72.27443 44 ft 1 kts 215°
2026-04-25 19:09 21.77515 -72.27448 44 ft 4 kts 215°
2026-04-25 19:09 21.77406 -72.27506 42 ft 9 kts 257°
2026-04-25 19:10 21.77408 -72.27583 44 ft 12 kts 273°
2026-04-25 19:10 21.77413 -72.27688 44 ft 16 kts 273°
2026-04-25 19:10 21.77420 -72.27819 44 ft 19 kts 273°
2026-04-25 19:10 21.77427 -72.27958 44 ft 18 kts 273°
2026-04-25 19:11 21.77437 -72.28091 43 ft 17 kts 287°
2026-04-25 19:11 21.77477 -72.28184 42 ft 10 kts 278°
2026-04-25 19:11 21.77444 -72.28200 43 ft 7 kts 135°
2026-04-25 19:11 21.77434 -72.28109 43 ft 34 kts 91°
2026-04-25 19:12 21.77408 -72.27566 44 ft 109 kts 93°
2026-04-25 19:12 21.77360 -72.26520 105 ft 162 kts 93°
2026-04-25 19:12 21.77279 -72.25322 903 ft 162 kts 93°
2026-04-25 19:12 21.77214 -72.24060 1541 ft 178 kts 93°
2026-04-25 19:13 21.77135 -72.22598 1857 ft 211 kts 93°
2026-04-25 19:13 21.77041 -72.20922 2112 ft 235 kts 93°
2026-04-25 19:13 21.77069 -72.19114 2468 ft 253 kts 76°
2026-04-25 19:13 21.77963 -72.17469 2918 ft 268 kts 42°
2026-04-25 19:14 21.79601 -72.16535 3757 ft 269 kts 10°
2026-04-25 19:14 21.80861 -72.16414 4376 ft 269 kts 357°
2026-04-25 19:14 21.83355 -72.16673 5502 ft 274 kts 350°
2026-04-25 19:14 21.85260 -72.16960 6297 ft 279 kts 349°
2026-04-25 19:15 21.87181 -72.17244 7058 ft 282 kts 350°
2026-04-25 19:15 21.89144 -72.17517 7863 ft 285 kts 350°
2026-04-25 19:15 21.91126 -72.17777 8651 ft 289 kts 350°
2026-04-25 19:15 21.93134 -72.18029 9449 ft 292 kts 351°
2026-04-25 19:16 21.95165 -72.18281 10217 ft 296 kts 351°
2026-04-25 19:16 21.97258 -72.18547 10487 ft 317 kts 348°
2026-04-25 19:16 21.99375 -72.19382 10636 ft 334 kts 323°
2026-04-25 19:16 22.01020 -72.21202 10798 ft 349 kts 301°
2026-04-25 19:17 22.02284 -72.23509 11070 ft 363 kts 297°
2026-04-25 19:17 22.03516 -72.25917 11594 ft 368 kts 297°
2026-04-25 19:17 22.04740 -72.28327 12250 ft 370 kts 297°
2026-04-25 19:17 22.05994 -72.30767 12908 ft 372 kts 297°
2026-04-25 19:18 22.07267 -72.33215 13554 ft 375 kts 297°
2026-04-25 19:18 22.08559 -72.35681 14141 ft 378 kts 297°
2026-04-25 19:18 22.09864 -72.38163 14723 ft 381 kts 298°
2026-04-25 19:18 22.11165 -72.40631 15318 ft 383 kts 298°
2026-04-25 19:19 22.12488 -72.43145 15906 ft 386 kts 298°
2026-04-25 19:19 22.13823 -72.45682 16477 ft 389 kts 298°
2026-04-25 19:19 22.15170 -72.48238 17042 ft 392 kts 298°
2026-04-25 19:19 22.16065 -72.49937 17416 ft 394 kts 298°
2026-04-25 19:20 22.17887 -72.53398 18145 ft 398 kts 298°
2026-04-25 19:20 22.19241 -72.55971 18607 ft 401 kts 298°
2026-04-25 19:20 22.20627 -72.58606 19110 ft 402 kts 297°
2026-04-25 19:20 22.22010 -72.61236 19615 ft 404 kts 297°
2026-04-25 19:21 22.23401 -72.63885 20103 ft 405 kts 297°
2026-04-25 19:21 22.26182 -72.69183 21043 ft 409 kts 297°
2026-04-25 19:21 22.27586 -72.71860 21493 ft 411 kts 297°
2026-04-25 19:22 22.29000 -72.74558 21949 ft 412 kts 297°
2026-04-25 19:22 22.30418 -72.77266 22375 ft 414 kts 297°
2026-04-25 19:22 22.33251 -72.82678 23212 ft 418 kts 297°
2026-04-25 19:23 22.34684 -72.85417 23599 ft 420 kts 297°
2026-04-25 19:23 22.37568 -72.90935 24301 ft 422 kts 297°
2026-04-25 19:23 22.39014 -72.93702 24645 ft 423 kts 296°
2026-04-25 19:24 22.40466 -72.96485 24974 ft 424 kts 296°
2026-04-25 19:24 22.41918 -72.99269 25297 ft 426 kts 296°
2026-04-25 19:24 22.44820 -73.04836 25924 ft 428 kts 296°
2026-04-25 19:25 22.47754 -73.10470 26536 ft 431 kts 296°
2026-04-25 19:25 22.49230 -73.13307 26827 ft 432 kts 296°
2026-04-25 19:25 22.50711 -73.16156 27121 ft 434 kts 296°
2026-04-25 19:26 22.52190 -73.19003 27406 ft 435 kts 296°
2026-04-25 19:26 22.53674 -73.21859 27693 ft 436 kts 296°
2026-04-25 19:26 22.55142 -73.24685 28052 ft 435 kts 296°
2026-04-25 19:26 22.56617 -73.27527 28515 ft 432 kts 296°
2026-04-25 19:27 22.58086 -73.30357 29005 ft 429 kts 296°
2026-04-25 19:27 22.59055 -73.32225 29322 ft 427 kts 295°
2026-04-25 19:27 22.60996 -73.35972 29917 ft 425 kts 295°
2026-04-25 19:27 22.62439 -73.38758 30307 ft 423 kts 295°
2026-04-25 19:28 22.63855 -73.41496 30723 ft 421 kts 295°
2026-04-25 19:28 22.65283 -73.44255 31173 ft 417 kts 295°
2026-04-25 19:28 22.66697 -73.46991 31613 ft 414 kts 295°
2026-04-25 19:28 22.68102 -73.49711 32024 ft 412 kts 295°
2026-04-25 19:29 22.69497 -73.52413 32428 ft 410 kts 294°
2026-04-25 19:29 22.70885 -73.55103 32835 ft 407 kts 294°
2026-04-25 19:29 22.72243 -73.57735 33251 ft 405 kts 294°
2026-04-25 19:29 22.73614 -73.60395 33642 ft 403 kts 294°
2026-04-25 19:30 22.74979 -73.63045 33932 ft 402 kts 294°
2026-04-25 19:30 22.76348 -73.65706 33923 ft 403 kts 294°
2026-04-25 19:30 22.79075 -73.71006 33936 ft 400 kts 294°
2026-04-25 19:31 22.81768 -73.76245 33932 ft 399 kts 294°
2026-04-25 19:31 22.84468 -73.81504 33936 ft 398 kts 294°
2026-04-25 19:32 22.87146 -73.86724 33934 ft 397 kts 294°
2026-04-25 19:32 22.88931 -73.90207 33934 ft 397 kts 294°
2026-04-25 19:33 22.92512 -73.97204 33937 ft 398 kts 294°
2026-04-25 19:33 22.95200 -74.02461 33932 ft 398 kts 294°
2026-04-25 19:34 22.97874 -74.07695 33931 ft 399 kts 294°
2026-04-25 19:34 23.00570 -74.12979 33932 ft 400 kts 294°
2026-04-25 19:35 23.03270 -74.18276 33933 ft 400 kts 294°
2026-04-25 19:35 23.05954 -74.23545 33932 ft 401 kts 294°
2026-04-25 19:36 23.08654 -74.28853 33930 ft 401 kts 294°
2026-04-25 19:36 23.11354 -74.34165 33928 ft 401 kts 294°
2026-04-25 19:37 23.14049 -74.39474 33931 ft 401 kts 294°
2026-04-25 19:37 23.16730 -74.44761 33938 ft 401 kts 294°
2026-04-25 19:38 23.19418 -74.50067 33927 ft 401 kts 294°
2026-04-25 19:38 23.22103 -74.55375 33931 ft 400 kts 294°
2026-04-25 19:39 23.24774 -74.60658 33928 ft 400 kts 294°
2026-04-25 19:39 23.27455 -74.65968 33930 ft 400 kts 294°
2026-04-25 19:40 23.30133 -74.71279 33932 ft 400 kts 294°
2026-04-25 19:40 23.32807 -74.76586 33931 ft 400 kts 294°
2026-04-25 19:41 23.35465 -74.81867 33932 ft 400 kts 294°
2026-04-25 19:41 23.37237 -74.85391 33933 ft 400 kts 294°
2026-04-25 19:42 23.40370 -74.92681 33937 ft 394 kts 285°
2026-04-25 19:42 23.42072 -74.98338 33931 ft 395 kts 285°
2026-04-25 19:43 23.43788 -75.04031 33931 ft 396 kts 285°
2026-04-25 19:43 23.45518 -75.09737 33931 ft 396 kts 285°
2026-04-25 19:44 23.47244 -75.15416 33932 ft 397 kts 285°
2026-04-25 19:44 23.48979 -75.21129 33935 ft 397 kts 285°
2026-04-25 19:45 23.50703 -75.26816 33932 ft 398 kts 285°
2026-04-25 19:45 23.52443 -75.32558 33935 ft 398 kts 285°
2026-04-25 19:46 23.54167 -75.38261 33934 ft 398 kts 285°
2026-04-25 19:46 23.55899 -75.43999 33935 ft 398 kts 285°
2026-04-25 19:47 23.57633 -75.49750 33936 ft 398 kts 285°
2026-04-25 19:47 23.59353 -75.55463 33936 ft 398 kts 285°
2026-04-25 19:48 23.61079 -75.61204 33936 ft 398 kts 285°
2026-04-25 19:48 23.62793 -75.66913 33936 ft 398 kts 285°
2026-04-25 19:49 23.63947 -75.70764 33932 ft 398 kts 285°
2026-04-25 19:49 23.66239 -75.78419 33934 ft 398 kts 285°
2026-04-25 19:50 23.68810 -75.87027 33935 ft 398 kts 285°
2026-04-25 19:51 23.70526 -75.92784 33940 ft 398 kts 285°
2026-04-25 19:51 23.72226 -75.98492 33936 ft 398 kts 285°
2026-04-25 19:52 23.73937 -76.04252 33937 ft 399 kts 285°
2026-04-25 19:52 23.75648 -76.10017 33937 ft 399 kts 285°
2026-04-25 19:53 23.77071 -76.14817 33938 ft 399 kts 285°
2026-04-25 19:53 23.78784 -76.20605 33933 ft 400 kts 285°
2026-04-25 19:54 23.80485 -76.26358 33939 ft 400 kts 285°
2026-04-25 19:54 23.82194 -76.32151 33939 ft 400 kts 285°
2026-04-25 19:55 23.83902 -76.37947 33941 ft 401 kts 285°
2026-04-25 19:55 23.85597 -76.43710 33938 ft 401 kts 285°
2026-04-25 19:56 23.87305 -76.49524 33941 ft 401 kts 285°
2026-04-25 19:56 23.89012 -76.55346 33941 ft 402 kts 285°
2026-04-25 19:57 23.90708 -76.61137 33937 ft 402 kts 285°
2026-04-25 19:57 23.92414 -76.66972 33941 ft 402 kts 285°
2026-04-25 19:58 23.94117 -76.72808 33936 ft 403 kts 285°
2026-04-25 19:58 23.95819 -76.78647 33940 ft 403 kts 285°
2026-04-25 19:59 23.97509 -76.84454 33937 ft 403 kts 285°
2026-04-25 19:59 23.99209 -76.90305 33938 ft 404 kts 285°
2026-04-25 20:00 24.00909 -76.96167 33940 ft 404 kts 285°
2026-04-25 20:00 24.02611 -77.02042 33939 ft 404 kts 285°
2026-04-25 20:01 24.05151 -77.10828 33945 ft 405 kts 285°
2026-04-25 20:01 24.06847 -77.16706 33941 ft 405 kts 285°
2026-04-25 20:02 24.08545 -77.22603 33944 ft 406 kts 285°
2026-04-25 20:02 24.10234 -77.28475 33940 ft 406 kts 285°
2026-04-25 20:03 24.11930 -77.34383 33943 ft 407 kts 285°
2026-04-25 20:03 24.13631 -77.40317 33943 ft 408 kts 285°
2026-04-25 20:04 24.15318 -77.46214 33945 ft 408 kts 285°
2026-04-25 20:04 24.17016 -77.52157 33943 ft 409 kts 285°
2026-04-25 20:05 24.18714 -77.58110 33944 ft 409 kts 285°
2026-04-25 20:05 24.20402 -77.64035 33945 ft 410 kts 286°
2026-04-25 20:06 24.22102 -77.70014 33944 ft 410 kts 286°
2026-04-25 20:06 24.23802 -77.76003 33945 ft 411 kts 286°
2026-04-25 20:07 24.25489 -77.81957 33946 ft 412 kts 286°
2026-04-25 20:07 24.27344 -77.87904 33937 ft 414 kts 295°
2026-04-25 20:08 24.30548 -77.93188 33950 ft 417 kts 301°
2026-04-25 20:08 24.33836 -77.98447 33949 ft 418 kts 301°
2026-04-25 20:09 24.37080 -78.03699 33945 ft 418 kts 301°
2026-04-25 20:09 24.40337 -78.09007 33945 ft 419 kts 301°
2026-04-25 20:10 24.43603 -78.14340 33946 ft 420 kts 301°
2026-04-25 20:10 24.46843 -78.19637 33946 ft 420 kts 301°
2026-04-25 20:11 24.50108 -78.24980 33945 ft 421 kts 302°
2026-04-25 20:11 24.53357 -78.30303 33948 ft 422 kts 302°
2026-04-25 20:12 24.56637 -78.35680 33947 ft 422 kts 302°
2026-04-25 20:12 24.59356 -78.40144 33950 ft 423 kts 302°
2026-04-25 20:13 24.63163 -78.46400 33946 ft 423 kts 302°
2026-04-25 20:13 24.66440 -78.51792 33947 ft 423 kts 302°
2026-04-25 20:14 24.69710 -78.57180 33949 ft 423 kts 302°
2026-04-25 20:14 24.72983 -78.62578 33949 ft 423 kts 302°
2026-04-25 20:15 24.76234 -78.67944 33949 ft 423 kts 302°
2026-04-25 20:15 24.79503 -78.73347 33946 ft 423 kts 302°
2026-04-25 20:16 24.82769 -78.78743 33948 ft 423 kts 302°
2026-04-25 20:16 24.86006 -78.84097 33948 ft 423 kts 302°
2026-04-25 20:17 24.89259 -78.89487 33948 ft 422 kts 302°
2026-04-25 20:17 24.90900 -78.92207 33464 ft 429 kts 302°
2026-04-25 20:17 24.92546 -78.94938 32804 ft 426 kts 302°
2026-04-25 20:18 24.94185 -78.97659 32072 ft 425 kts 302°
2026-04-25 20:18 24.95820 -79.00375 31289 ft 426 kts 302°
2026-04-25 20:18 24.97461 -79.03101 30494 ft 427 kts 302°
2026-04-25 20:18 24.99106 -79.05838 29710 ft 427 kts 302°
2026-04-25 20:19 25.00717 -79.08518 29052 ft 422 kts 302°
2026-04-25 20:19 25.02330 -79.11202 28423 ft 417 kts 303°
2026-04-25 20:19 25.03926 -79.13860 27822 ft 412 kts 303°
2026-04-25 20:19 25.05501 -79.16484 27226 ft 408 kts 303°
2026-04-25 20:20 25.07063 -79.19088 26642 ft 404 kts 303°
2026-04-25 20:20 25.08609 -79.21666 26068 ft 400 kts 303°
2026-04-25 20:20 25.10140 -79.24222 25507 ft 398 kts 303°
2026-04-25 20:20 25.11663 -79.26765 24954 ft 399 kts 303°
2026-04-25 20:21 25.13213 -79.29356 24356 ft 407 kts 303°
2026-04-25 20:21 25.14764 -79.31951 23771 ft 412 kts 303°
2026-04-25 20:21 25.16343 -79.34592 23092 ft 410 kts 303°
2026-04-25 20:21 25.17898 -79.37194 22767 ft 398 kts 303°
2026-04-25 20:22 25.19401 -79.39711 22585 ft 385 kts 303°
2026-04-25 20:22 25.19878 -79.40511 22523 ft 382 kts 303°
2026-04-25 20:22 25.22285 -79.44544 21712 ft 374 kts 303°
2026-04-25 20:22 25.23710 -79.46933 21218 ft 370 kts 303°
2026-04-25 20:23 25.25119 -79.49298 20746 ft 366 kts 303°
2026-04-25 20:23 25.26516 -79.51643 20275 ft 363 kts 303°
2026-04-25 20:23 25.27900 -79.53966 19810 ft 359 kts 303°
2026-04-25 20:23 25.29269 -79.56268 19341 ft 356 kts 303°
2026-04-25 20:24 25.30624 -79.58545 18884 ft 354 kts 303°
2026-04-25 20:24 25.31974 -79.60818 18419 ft 351 kts 303°
2026-04-25 20:24 25.33295 -79.63040 17918 ft 349 kts 303°
2026-04-25 20:24 25.34626 -79.65283 17453 ft 346 kts 303°
2026-04-25 20:25 25.35941 -79.67498 16987 ft 342 kts 303°
2026-04-25 20:25 25.37240 -79.69688 16532 ft 339 kts 303°
2026-04-25 20:25 25.38530 -79.71863 16077 ft 337 kts 303°
2026-04-25 20:25 25.39830 -79.73997 15716 ft 332 kts 304°
2026-04-25 20:26 25.41171 -79.76079 15375 ft 330 kts 305°
2026-04-25 20:26 25.42494 -79.78111 15041 ft 329 kts 305°
2026-04-25 20:26 25.43831 -79.80171 14707 ft 330 kts 305°
2026-04-25 20:26 25.45169 -79.82245 14364 ft 332 kts 305°
2026-04-25 20:27 25.46512 -79.84337 14013 ft 332 kts 305°
2026-04-25 20:27 25.47849 -79.86421 13644 ft 331 kts 305°
2026-04-25 20:27 25.49180 -79.88498 13266 ft 329 kts 305°
2026-04-25 20:27 25.50497 -79.90555 12904 ft 324 kts 305°
2026-04-25 20:28 25.51775 -79.92550 12561 ft 319 kts 305°
2026-04-25 20:28 25.53043 -79.94532 12228 ft 313 kts 305°
2026-04-25 20:28 25.54294 -79.96488 11920 ft 309 kts 305°
2026-04-25 20:28 25.55526 -79.98415 11587 ft 304 kts 304°
2026-04-25 20:29 25.56746 -80.00322 11271 ft 300 kts 305°
2026-04-25 20:29 25.57941 -80.02193 11137 ft 290 kts 305°
2026-04-25 20:29 25.59083 -80.03982 11189 ft 287 kts 304°
2026-04-25 20:29 25.60236 -80.05789 11188 ft 284 kts 305°
2026-04-25 20:30 25.61373 -80.07569 11036 ft 281 kts 305°
2026-04-25 20:30 25.62488 -80.09316 10866 ft 274 kts 305°
2026-04-25 20:30 25.63580 -80.11028 10602 ft 271 kts 304°
2026-04-25 20:30 25.64657 -80.12717 10280 ft 271 kts 304°
2026-04-25 20:31 25.65712 -80.14452 9961 ft 271 kts 298°
2026-04-25 20:31 25.66542 -80.16329 9656 ft 270 kts 294°
2026-04-25 20:31 25.67310 -80.18224 9338 ft 268 kts 294°
2026-04-25 20:31 25.68082 -80.20104 9040 ft 267 kts 295°
2026-04-25 20:32 25.68859 -80.21971 8724 ft 266 kts 295°
2026-04-25 20:32 25.69641 -80.23834 8414 ft 265 kts 295°
2026-04-25 20:32 25.70415 -80.25661 8121 ft 264 kts 295°
2026-04-25 20:32 25.71120 -80.27542 7809 ft 264 kts 283°
2026-04-25 20:33 25.71206 -80.29580 7504 ft 265 kts 268°
2026-04-25 20:33 25.71100 -80.31617 7227 ft 264 kts 267°
2026-04-25 20:33 25.70990 -80.33652 6945 ft 264 kts 267°
2026-04-25 20:33 25.70955 -80.34310 6851 ft 264 kts 267°
2026-04-25 20:34 25.70783 -80.37719 6386 ft 263 kts 267°
2026-04-25 20:34 25.70686 -80.39699 5997 ft 259 kts 267°
2026-04-25 20:34 25.70590 -80.41704 5427 ft 260 kts 266°
2026-04-25 20:34 25.70493 -80.43704 4825 ft 259 kts 266°
2026-04-25 20:35 25.70354 -80.45702 4188 ft 261 kts 264°
2026-04-25 20:35 25.70184 -80.47699 3626 ft 260 kts 263°
2026-04-25 20:35 25.69996 -80.49702 3203 ft 261 kts 263°
2026-04-25 20:35 25.69794 -80.51722 3077 ft 263 kts 262°
2026-04-25 20:36 25.69859 -80.53669 2997 ft 246 kts 286°
2026-04-25 20:36 25.70711 -80.55196 2993 ft 235 kts 319°
2026-04-25 20:36 25.72133 -80.55988 3013 ft 229 kts 348°
2026-04-25 20:36 25.73703 -80.56304 3022 ft 230 kts 352°
2026-04-25 20:37 25.75277 -80.56581 3009 ft 227 kts 353°
2026-04-25 20:37 25.76833 -80.56800 2990 ft 224 kts
2026-04-25 20:37 25.78273 -80.56276 2992 ft 216 kts 39°
2026-04-25 20:37 25.79164 -80.54967 3012 ft 215 kts 73°
2026-04-25 20:38 25.79228 -80.53368 2996 ft 209 kts 105°
2026-04-25 20:38 25.78757 -80.51893 2991 ft 198 kts 112°
2026-04-25 20:38 25.78238 -80.50495 3020 ft 194 kts 112°
2026-04-25 20:38 25.78004 -80.49023 3003 ft 194 kts 91°
2026-04-25 20:39 25.78003 -80.47572 2891 ft 181 kts 91°
2026-04-25 20:39 25.78022 -80.46227 2707 ft 171 kts 90°
2026-04-25 20:39 25.78062 -80.44923 2493 ft 167 kts 90°
2026-04-25 20:39 25.78077 -80.44507 2400 ft 166 kts 89°
2026-04-25 20:40 25.78157 -80.42478 2016 ft 152 kts 90°
2026-04-25 20:40 25.78203 -80.41318 1871 ft 151 kts 89°
2026-04-25 20:40 25.78253 -80.40160 1663 ft 148 kts 88°
2026-04-25 20:40 25.78284 -80.39405 1524 ft 147 kts 89°
2026-04-25 20:41 25.78331 -80.38284 1367 ft 141 kts 89°
2026-04-25 20:41 25.78375 -80.37223 1155 ft 136 kts 90°
2026-04-25 20:41 25.78414 -80.36164 988 ft 139 kts 90°
2026-04-25 20:41 25.78453 -80.35057 764 ft 149 kts 89°
2026-04-25 20:42 25.78509 -80.33915 528 ft 145 kts 90°
2026-04-25 20:42 25.78564 -80.32812 253 ft 142 kts 90°
2026-04-25 20:42 25.78606 -80.31739 82 ft 137 kts 90°
2026-04-25 20:42 25.78645 -80.30733 20 ft 119 kts 89°
2026-04-25 20:43 25.78674 -80.29988 14 ft 74 kts 87°
2026-04-25 20:43 25.78690 -80.29585 16 ft 38 kts 89°
2026-04-25 20:43 25.78726 -80.29294 19 ft 38 kts 69°
2026-04-25 20:43 25.78810 -80.29136 15 ft 15 kts 68°
2026-04-25 20:44 25.78823 -80.29021 16 ft 15 kts 86°
2026-04-25 20:44 25.78854 -80.28912 15 ft 15 kts 70°
2026-04-25 20:44 25.78945 -80.28865 14 ft 17 kts 351°
2026-04-25 20:44 25.79064 -80.28878 12 ft 16 kts 358°
2026-04-25 20:45 25.79123 -80.28880 11 ft 0 kts 359°
2026-04-25 20:45 25.79138 -80.28881 11 ft 9 kts 359°
2026-04-25 20:45 25.79239 -80.28883 12 ft 16 kts 358°
2026-04-25 20:45 25.79351 -80.28884 14 ft 16 kts 358°
2026-04-25 20:46 25.79457 -80.28890 16 ft 15 kts 357°
2026-04-25 20:46 25.79560 -80.28897 17 ft 14 kts 356°
2026-04-25 20:46 25.79659 -80.28902 19 ft 14 kts 358°
2026-04-25 20:46 25.79753 -80.28906 21 ft 13 kts 358°
2026-04-25 20:47 25.79844 -80.28910 21 ft 13 kts 357°
2026-04-25 20:47 25.79915 -80.28893 21 ft 10 kts 47°
2026-04-25 20:47 25.79933 -80.28810 21 ft 12 kts 85°
2026-04-25 20:47 25.79938 -80.28700 20 ft 16 kts 87°
2026-04-25 20:48 25.79944 -80.28557 17 ft 21 kts 88°
2026-04-25 20:48 25.79950 -80.28388 15 ft 23 kts 86°
2026-04-25 20:48 25.79957 -80.28215 14 ft 22 kts 88°
2026-04-25 20:48 25.79964 -80.28047 11 ft 21 kts 87°
2026-04-25 20:49 25.79970 -80.27885 12 ft 21 kts 87°
2026-04-25 20:49 25.79978 -80.27729 15 ft 20 kts 87°
2026-04-25 20:49 25.79984 -80.27576 16 ft 20 kts 88°
2026-04-25 20:49 25.79990 -80.27428 18 ft 19 kts 88°
2026-04-25 20:50 25.79996 -80.27285 21 ft 18 kts 86°
2026-04-25 20:50 25.80001 -80.27176 22 ft 13 kts 88°
2026-04-25 20:50 25.79976 -80.27084 20 ft 12 kts 125°
2026-04-25 20:50 25.79934 -80.27023 20 ft 6 kts 128°
2026-04-25 20:51 25.79903 -80.27030 21 ft 6 kts 245°
2026-04-25 20:51 25.79893 -80.27073 21 ft 6 kts 258°
2026-04-25 20:51 25.79888 -80.27098 21 ft 0 kts 258°